This is the latest recevied weather packets stored in our database for station/object VE4GLS. If no packets are shown the sender has not sent any weather packets the latest 1 day(s).
| Time | Temp. | Humidity | Pressure | Rain* | Wind** | Luminosity | Snow |
|---|---|---|---|---|---|---|---|
| 1778032056 | 2.78° C | 63% | 1013 hPa | 0 mm | 3.13 m/s, 312° | - | - |
| 1778031984 | 2.78° C | 63% | 1013 hPa | 0 mm | 3.13 m/s, 309° | - | - |
| 1778031384 | 2.78° C | 62% | 1012.9 hPa | 0 mm | 4.47 m/s, 327° | - | - |
| 1778031155 | 2.78° C | 62% | 1012.8 hPa | 0 mm | 2.68 m/s, 313° | - | - |
| 1778030783 | 2.78° C | 62% | 1012.8 hPa | 0 mm | 4.02 m/s, 311° | - | - |
| 1778030254 | 2.78° C | 61% | 1012.8 hPa | 0 mm | 5.36 m/s, 317° | - | - |
| 1778030182 | 2.78° C | 61% | 1012.9 hPa | 0 mm | 2.68 m/s, 306° | - | - |
| 1778029582 | 2.78° C | 62% | 1012.8 hPa | 0 mm | 1.34 m/s, 338° | - | - |
| 1778029354 | 2.78° C | 61% | 1012.8 hPa | 0 mm | 2.68 m/s, 358° | - | - |
| 1778028984 | 2.78° C | 62% | 1012.8 hPa | 0 mm | 2.68 m/s, 353° | - | - |
| 1778028456 | 2.78° C | 61% | 1012.7 hPa | 0 mm | 3.13 m/s, 321° | - | - |
| 1778028383 | 2.78° C | 61% | 1012.7 hPa | 0 mm | 3.13 m/s, 310° | - | - |
| 1778027783 | 2.78° C | 61% | 1012.7 hPa | 0 mm | 3.13 m/s, 321° | - | - |
| 1778027555 | 2.78° C | 61% | 1012.6 hPa | 0 mm | 3.13 m/s, 344° | - | - |
| 1778027183 | 2.78° C | 61% | 1012.5 hPa | 0 mm | 2.68 m/s, 322° | - | - |
| 1778026655 | 3.33° C | 60% | 1012.5 hPa | 0 mm | 3.13 m/s, 311° | - | - |
| 1778026583 | 3.33° C | 60% | 1012.5 hPa | 0 mm | 2.24 m/s, 334° | - | - |
| 1778025984 | 3.33° C | 60% | 1012.4 hPa | 0 mm | 5.36 m/s, 359° | - | - |
| 1778025756 | 3.33° C | 60% | 1012.5 hPa | 0 mm | 2.24 m/s, 346° | - | - |
| 1778025382 | 3.33° C | 60% | 1012.5 hPa | 0 mm | 3.58 m/s, 350° | - | - |
| 1778024854 | 3.33° C | 61% | 1012.4 hPa | 0 mm | 3.58 m/s, 350° | - | - |
| 1778024782 | 3.33° C | 61% | 1012.4 hPa | 0 mm | 2.68 m/s, 336° | - | - |
| 1778024182 | 3.33° C | 60% | 1012.4 hPa | 0 mm | 5.81 m/s, 333° | - | - |
| 1778023954 | 3.33° C | 59% | 1012.3 hPa | 0 mm | 4.47 m/s, 333° | - | - |
| 1778023582 | 3.33° C | 59% | 1012.3 hPa | 0 mm | 4.02 m/s, 332° | - | - |
* Rain latest hour (hover to see other rain measurements)
** Current wind speed in m/s (hover to see current wind gust speed)